CZ-2C R/B, 62078

Orbit data source: Space-Track

CZ-2C R/B, 62078 is space debris in SSO originally from a launch on Sun, 24 Nov 2024 UTC via a CHANG ZHENG 2C launch vehicle from the Jiuquan Satellite Launch Center, China (JSC). Debris objects in space refer to the collection of defunct objects orbiting the Earth. Examples of debris include non-operational satellites, rocket bodies, and fragments generated from explosions, collisions, or faulty payload assembly.

Loading next visibility...
CZ-2C R/B details
Identifier
62078, 2024-218A
Orbit
SSO
Last TLE update8 hours ago
Origin
Flag of CNCASC (CN / PRC)
ManufacturerCALT
MissionSpacecraft
Bus & MotorCZ-2 STAGE 2, Unknown motor
Mass~3,800 kg wet, ~3,800 kg dry
Launch date (UTC)
2024-11-24 (1 month ago)
Launch vehicle
CHANG ZHENG 2C
Launch site
Jiuquan Satellite Launch Center, China (JSC)
Object type
Payload
Rocket body
Debris
Shape & HBRUnknown
Radar Cross SectionLarge (>1 m²)

Expand to show TLE details & history

TLE from 8 hours ago
0 CZ-2C R/B
1 62078U 24218A   24361.07624793  .00011248  00000-0  58050-3 0  9991
2 62078  97.5503   5.5121 0055549  84.5739 276.1826 15.15129452  4711
Epoch: 2024-12-26T01:49Z
Definitive object data (Epoch: 2024-12-26T01:49:47.821Z)
Latitude-0.00006°
Longitude-116.99798°
Altitude519.748 km
Speed7.606 km/s
True Right ascension00h 22m 02s
True Declination0° 00' 00"
Sunlit
Object was in daylight at TLE epoch
Visualization TLE readout
Latitude77.08329°
Longitude98.43092°
Altitude497.005 km
Speed7.643 km/s
Apparent Right ascension20h 19m 49s
Apparent Declination28° 27' 15"
Sunlit
Object is in daylight
Visualization observer readout
Local Sidereal Time09:32:46
Azimuth16.976° NNE
Elevation-19.557°
Doppler factor1
Orbital elements
Apogee altitude555.869 km
Perigee altitude479.259 km
Semi-major axis6,895.701 km
Eccentricity0.0055549
Inclination97.5503°
RAAN5.5121°
Arg. of periapsis84.5739°
True anomaly275.5493°
Mean anomaly276.1826°
Eccentric anomaly275.86599°
Mean motion3.79032 °/min
BSTAR0.0005805
Orbital period94.98 mins
Loading maneuver chart data...
Loading historical data...
Loading historical data...
Loading historical data...
Loading historical data...
Loading historical data...
Loading historical data...
Loading historical data...
Other satellites on launch #218 in the year 2024 (2024-11-24 UTC)

CZ-2C R/B Visibility forecast

Observer location: undefined°, undefined

Span
Click to sort rows by Start time (UTC) header in descending order
Start Az.
Max El. time (UTC)
Max El. Az.
Max El.
End time (UTC)
End Az.
7 mins2024-12-26 13:28:37.550Z9.25° NNE2024-12-26 13:31:37.550Z344.578° N42.776°2024-12-26 13:35:37.550Z197.18° SSW
4 mins2024-12-27 00:10:37.550Z123.833° SE2024-12-27 00:11:37.550Z94.463° ESE31.591°2024-12-27 00:14:37.550Z8.966° NNE
|